Location: La Rivière
(46.6548°N, 0.8391°E)
Time: 11:15:35
(UTC+00:00)

Daily predictions for brighter satellites

Satellite Brightness Start Highest point End
(mag) Time Altitude Azimuth Time Altitude Azimuth Time Altitude Azimuth
ERS-1 Rocket 3.9 20:09:16 10° SE 20:13:46 34° ENE 20:18:17 10° N
CZ-4C R/B 3.7 20:10:07 10° NNE 20:13:55 45° E 20:17:48 10° S
USA 59 Rocket 0.9 20:10:57 10° NNW 20:14:33 39° NE 20:19:21 10° ESE
CZ-4 R/B 3.8 20:13:16 10° SW 20:16:14 21° W 20:19:16 10° NW
CSL-04 Rocket 4.3 20:11:33 10° S 20:16:44 57° W 20:21:58 10° NNW
Cosmos 1340 Rocket 4.1 20:14:00 10° SE 20:17:10 23° E 20:20:21 10° NE
Lacrosse 4 Rocket 3.0 20:13:55 10° N 20:17:16 23° NE 20:20:38 10° E
NOSS 2-1 (E) 4.4 20:13:59 10° NNW 20:17:37 41° NE 20:22:31 10° ESE
Cosmos 1766 Rocket 4.4 20:14:31 10° NNW 20:18:53 54° W 20:23:14 10° S
Meteor 1-27 Rocket 4.3 20:14:42 10° SSE 20:19:40 36° E 20:24:43 10° NNE
Resurs 01 Rocket 2.8 20:17:40 10° S 20:21:52 42° W 20:26:06 10° NNW
Cosmos 1452 Rocket 3.7 20:16:39 10° NNW 20:21:54 77° WSW 20:27:07 10° SSE
IRS-1C Rocket 4.4 20:18:20 10° SSE 20:23:28 57° ENE 20:28:36 10° N
Okean O Rocket 2.6 20:20:04 10° S 20:24:21 48° W 20:28:39 10° NNW
USA 306 4.0 20:21:55 10° WNW 20:25:13 29° SW 20:28:37 10° SSE
ISS -1.3 20:26:19 10° W 20:28:15 15° SW 20:30:11 10° S
Terra 2.6 20:24:36 10° SE 20:28:55 37° ENE 20:33:16 10° N
IRS-1A Rocket 4.4 20:25:14 10° SSE 20:30:43 62° ENE 20:36:10 10° N
NOSS 2-1 (D) 4.0 20:27:03 10° NNW 20:30:47 54° NE 20:35:54 10° SE
Cosmos 1743 Rocket 4.2 20:30:38 10° N 20:34:50 41° ENE 20:38:55 11° SE
Cosmos 2369 Rocket 4.0 20:32:32 10° NW 20:37:10 27° WSW 20:41:48 10° SSW
Cosmos 1603 3.9 20:33:15 10° SSW 20:38:56 83° WNW 20:44:42 10° NNE
SeaSat 1 3.8 20:34:33 10° S 20:38:58 33° WSW 20:43:25 10° NW
Okean 1 3.3 20:36:20 10° S 20:40:09 62° E 20:44:01 10° NNE
Cosmos 1408 Rocket 3.6 20:36:39 10° N 20:41:08 83° E 20:45:34 10° S
Centaur D AC-29 4.2 20:37:08 10° SSW 20:42:07 20° SE 20:55:23 10° ESE
ARGOS Delta rocket 3.9 20:39:04 10° SSE 20:43:54 65° ENE 20:48:30 10° N
DELTA 2 R/B (1) 4.5 20:39:48 10° SW 20:44:28 27° SSE 20:49:08 10° ESE
Cosmos 1151 Rocket 3.7 20:43:17 10° SSE 20:47:14 36° E 20:51:12 10° NNE
Cosmos 1975 4.1 20:47:56 10° NNE 20:51:14 25° ENE 20:53:47 14° ESE
MOS 1 Rocket 3.9 20:54:08 13° SE 20:58:37 54° ENE 21:03:52 10° N
Cosmos 1302 Rocket 4.0 20:53:40 10° NNW 20:58:54 87° WSW 21:03:31 13° SSE
USA 281 4.0 20:54:10 11° ESE 21:00:00 42° NE 21:06:08 10° NNW
Cosmos 220 Rocket 4.2 20:56:45 10° S 21:00:56 49° ESE 21:05:06 10° NNE
NOSS 3-3 (A) 4.0 20:56:59 10° S 21:02:03 44° ESE 21:07:51 10° NE
Meteor 1-19 Rocket 4.3 20:59:31 10° S 21:05:22 83° E 21:11:03 10° NNE
Cosmos 1536 3.7 21:02:20 10° NNW 21:06:07 47° W 21:09:53 10° SSW
Meteor 2-17 Rocket 4.4 21:01:28 10° S 21:07:28 71° E 21:13:30 10° NNE
NOSS 2-1 (C) 3.7 21:04:19 10° NW 21:08:14 78° SW 21:12:16 17° SSE
Cosmos 1340 2.3 21:06:37 10° NNW 21:10:02 83° W 21:12:29 17° S
Landsat 4 3.4 21:09:33 18° SSE 21:12:04 89° ENE 21:15:34 10° NNW
Molniya-1 4.2 21:09:15 10° SSW 21:12:44 60° ESE 21:21:44 10° NE
Okean-O 4.4 21:11:18 10° SSW 21:15:05 28° W 21:18:54 10° NW
USA 245 2.7 21:14:21 21° S 21:15:40 51° W 21:18:13 10° NNW
Nadezhda 4 Rocket 4.0 21:10:08 10° S 21:16:20 83° E 21:22:38 10° N
Meteor 2-10 4.4 21:10:58 10° NNW 21:16:22 67° W 21:21:14 12° S
Spot 2 Rocket 3.5 21:12:31 15° SSE 21:16:42 90° W 21:21:47 10° NNW
MetOp-A 4.5 21:14:04 18° SE 21:17:19 45° ENE 21:22:08 10° N
Cosmos 1500 Rocket 4.1 21:13:25 10° NNW 21:17:38 54° W 21:21:38 11° S
Cosmos 1626 2.9 21:17:57 23° ESE 21:18:55 27° E 21:21:42 10° NNE
SPOT 5 3.9 21:17:48 10° SSW 21:21:55 36° W 21:25:56 10° NNW
Cosmos 1726 4.5 21:22:10 10° NW 21:23:59 15° W 21:25:47 10° WSW
Sich 1 3.6 21:20:57 10° NNW 21:25:14 54° W 21:28:59 13° S
BREEZE-M DEB (TANK) 3.4 21:13:48 10° SW 21:26:47 65° SSE 21:30:16 10° ENE
Cosmos 1697 Rocket 3.7 21:21:55 10° NNW 21:27:07 36° NE 21:31:08 16° ESE
Cosmos 1805 Rocket 4.3 21:25:01 10° NNW 21:29:17 50° W 21:33:05 13° SSW
Cosmos 1733 4.0 21:27:41 10° NNW 21:31:00 40° W 21:33:38 15° SSW
Cosmos 1633 Rocket 3.4 21:28:15 10° N 21:32:35 50° ENE 21:34:53 25° SE
IRIDIUM 104 4.5 21:28:21 10° N 21:33:32 60° E 21:36:47 23° SSE
Orbus 7S? 4.1 21:28:43 10° SSW 21:34:47 39° SE 21:38:03 10° ENE
NOSS 3-3 (C) 3.7 21:30:18 10° SSW 21:35:36 71° SE 21:41:54 10° NE
Cosmos 1980 Rocket 3.9 21:32:25 10° N 21:37:02 24° NE 21:41:38 10° E
Cosmos 1666 Rocket 3.5 21:34:14 10° N 21:38:33 70° E 21:40:51 26° SSE
Lacrosse 5 rocket 3.4 21:35:46 10° NW 21:39:19 25° NNE 21:42:45 10° ENE
SL-8 R/B 3.7 21:34:38 10° WNW 21:39:25 80° NNE 21:43:38 13° E
Ariane Rocket 3.4 21:36:07 16° S 21:40:03 59° WSW 21:45:05 10° NNW
IRIDIUM 114 4.3 21:37:27 10° N 21:42:41 72° E 21:45:54 24° SSE
Cosmos 44 Rocket 3.8 21:38:00 10° NNW 21:42:52 52° NE 21:45:49 22° ESE
Cosmos 1674 3.9 21:44:53 21° E 21:45:14 22° E 21:47:59 10° NE
Meteor 2-4 Rocket 3.8 21:46:32 14° S 21:51:39 89° W 21:57:38 10° N
IRIDIUM 103 4.3 21:46:35 10° N 21:51:51 86° E 21:55:03 24° S
ERS-1 Rocket 4.3 21:48:08 11° SSW 21:52:29 33° W 21:57:03 10° NNW
Cosmos 2026 Rocket 4.0 21:49:43 17° S 21:54:43 86° E 22:00:58 10° N
SPOT 3 Rocket 4.2 21:51:12 17° S 21:54:56 48° W 21:59:56 10° NNW
Lacrosse 4 Rocket 2.1 21:51:48 10° NW 21:55:43 44° WSW 21:57:32 27° S
Spot 1 4.2 21:53:44 10° N 21:57:53 73° WNW 22:01:02 18° SSW
Cosmos 1818 4.0 21:53:54 10° SW 21:59:19 66° NW 22:04:48 10° NNE
H-2A R/B 4.0 22:01:54 20° ESE 22:03:39 27° ENE 22:07:15 10° N
Cosmos 1607 4.1 21:58:33 14° SSW 22:03:58 59° ESE 22:10:20 10° NE
USA 59 Rocket 1.5 22:00:27 10° WNW 22:04:15 31° WSW 22:06:49 21° SSW
Cosmos 1805 4.5 22:01:52 10° NNW 22:05:13 33° W 22:07:13 19° SW
Terra 3.4 22:02:56 12° SSW 22:06:35 27° W 22:10:36 10° NW
Cosmos 1766 3.1 22:04:42 10° N 22:08:28 78° E 22:09:34 44° SSE
Cosmos 1833 Rocket 2.6 22:07:46 20° SSW 22:11:44 75° ESE 22:17:22 10° NNE
ALOS 2 4.5 22:12:16 16° E 22:14:13 20° ENE 22:17:27 10° NNE
Cosmos 1656 4.3 22:10:31 10° NW 22:15:42 45° WSW 22:18:33 25° SSW
Cosmos 1269 Rocket 4.4 22:12:55 10° SSW 22:18:05 63° WNW 22:23:20 10° NNE
Cosmos 1470 2.9 22:19:20 10° N 22:22:58 52° ENE 22:23:37 45° ESE
Cosmos 2082 Rocket 3.2 22:23:57 27° SE 22:25:09 29° ESE 22:30:00 10° NE
Cosmos 2251 Rocket 4.0 22:24:49 34° SE 22:26:20 43° ESE 22:31:19 10° NE
Cosmos 1975 4.4 22:23:44 10° NNW 22:27:04 27° W 22:28:58 18° SW
DELTA 2 R/B (1) 3.9 22:24:57 10° WSW 22:30:10 41° S 22:31:29 35° SE
Cosmos 1553 Rocket 3.9 22:26:04 10° N 22:32:12 86° W 22:35:15 32° S
GEOS 3 Rocket 3.5 22:33:22 10° NE 22:38:35 87° SE 22:42:27 18° SW
Cosmos 724 4.2 22:34:34 20° SSW 22:38:50 83° SE 22:44:42 10° NE
Cosmos 1908 3.3 22:35:23 10° N 22:38:54 53° ENE 22:39:14 50° ESE
ARIANE 5 R/B 2.5 22:40:25 46° S 22:41:39 80° WSW 22:45:59 10° NNW
USA 281 3.8 22:41:02 26° SSW 22:44:26 46° WSW 22:50:46 10° NW
H-2A R/B 4.0 22:46:44 10° NE 22:49:27 16° E 22:49:42 16° E
CZ-2C R/B 3.8 22:47:35 10° N 22:52:02 67° WNW 22:53:46 35° SW
Cosmos 2285 Rocket 3.9 22:48:47 29° SSW 22:52:15 86° ESE 22:58:39 10° NNE
Cosmos 1626 4.4 22:50:44 12° WSW 22:52:29 16° WNW 22:54:36 10° NNW
Cosmos 1515 Rocket 4.1 22:54:04 32° SW 22:55:45 51° WNW 22:59:59 10° N
Cosmos 1140 Rocket 3.8 22:54:16 25° SW 22:57:16 66° WNW 23:02:29 10° NNE
Meteor 1-22 Rocket 4.3 22:53:49 10° N 22:59:10 64° ENE 23:01:09 38° SE
Spot 4 3.8 22:58:19 46° SSE 22:59:44 77° ENE 23:04:31 10° N
BREEZE-M DEB (TANK) 4.0 22:55:56 10° WSW 23:00:27 80° SSE 23:19:56 10° ENE
Cosmos 1707 2.7 23:00:27 55° WSW 23:00:57 63° WNW 23:04:34 10° N
Cosmos 1733 Rocket 4.2 22:58:11 10° N 23:02:06 31° ENE 23:03:12 28° ESE
Spot 2 4.5 23:01:25 42° SE 23:02:56 67° ENE 23:07:54 10° N
Cosmos 1400 Rocket 3.5 23:02:59 37° E 23:03:06 37° E 23:06:47 10° NNE
Cosmos 2266 Rocket 3.9 23:02:10 36° S 23:04:53 85° E 23:11:14 10° N
PSLV R/B 4.3 23:01:41 10° N 23:05:40 58° WNW 23:06:48 41° SW
Cosmos 1300 3.7 23:03:13 10° N 23:06:27 32° ENE 23:06:40 31° E
Cosmos 1869 Rocket 3.5 23:04:44 10° N 23:09:08 84° W 23:10:01 57° S
NOSS 3-4 (A) 3.9 23:03:07 10° NW 23:10:01 67° SW 23:13:38 34° SSE
NOSS 3-4 (C) 3.9 23:03:13 10° NW 23:10:07 68° SW 23:13:46 34° SSE
Cosmos 1697 Rocket 3.4 23:05:54 10° NW 23:11:07 40° WSW 23:12:51 32° SSW
Cosmos 2322 Rocket 4.2 23:07:21 10° N 23:11:42 22° NE 23:16:03 10° E
Cosmos 1441 Rocket 2.9 23:08:27 10° NNW 23:12:02 82° W 23:12:05 81° WSW
Cosmos 883 Rocket 4.5 23:08:17 10° N 23:14:35 82° E 23:17:09 39° SSE
OPS 6432 4.5 23:11:51 10° NW 23:14:38 65° N 23:14:38 65° N
Meteor 1-15 Rocket 4.1 23:09:20 10° N 23:14:58 86° ENE 23:16:53 43° SSE
In-Cosmos 22 4.2 23:12:55 40° S 23:15:08 89° ESE 23:20:52 10° NNE
Lacrosse 5 rocket 1.3 23:14:02 10° NW 23:18:14 76° NE 23:19:04 54° ESE
Cosmos 1674 4.3 23:18:27 21° W 23:19:25 23° WNW 23:22:18 10° NNW
Cosmos 2228 Rocket 3.4 23:19:15 47° SE 23:19:55 52° E 23:24:20 10° NNE
Cosmos 1980 Rocket 2.2 23:15:53 10° NNW 23:21:34 69° WSW 23:23:22 44° S
SL-8 R/B 4.0 23:17:10 10° WNW 23:21:28 44° SW 23:21:28 44° SW
Cosmos 2333 Rocket 4.3 23:22:54 10° N 23:27:14 21° NE 23:31:33 10° E
Cosmos 1356 Rocket 4.0 23:27:09 40° ESE 23:27:23 40° E 23:31:17 10° NNE
Cosmos 1655 Rocket 4.0 23:26:16 38° S 23:28:55 89° E 23:35:21 10° N
Cosmos 540 Rocket 3.4 23:23:46 10° NNW 23:28:58 85° ENE 23:30:28 48° SSE
Cosmos 1953 4.2 23:28:13 10° NNE 23:31:09 20° ENE 23:32:08 18° E
Cosmos 1763 Rocket 3.5 23:26:08 10° NNW 23:31:26 69° WSW 23:32:48 48° S
BREEZE-M DEB (TANK) 3.6 23:30:30 10° WNW 23:37:31 13° ESE 23:38:32 10° ESE
Cosmos 468 Rocket 3.9 23:28:54 10° NNW 23:34:13 87° ENE 23:35:47 47° SSE
SL-14 R/B 3.1 23:36:11 73° ESE 23:36:17 74° E 23:40:06 10° NNE
GP-B 3.0 23:33:10 10° N 23:37:36 74° E 23:38:18 60° SSE
H-2A R/B 3.5 23:37:53 31° WSW 23:38:28 33° W 23:42:20 10° NNW
Cosmos 407 Rocket 4.4 23:36:25 22° WSW 23:39:24 44° WNW 23:44:26 10° N
Cosmos 1862 Rocket 3.5 23:42:08 58° SE 23:42:40 65° E 23:47:00 10° NNE
Cosmos 1455 3.9 23:40:05 10° NNE 23:42:41 20° ENE 23:43:13 19° E
CZ-3 Stage 3 4.1 23:26:29 10° WSW 23:43:10 30° SSW 23:43:39 30° SSW
Aureole 3 3.7 23:44:34 40° ENE 23:44:34 40° ENE 23:47:05 10° NNE
SJ 16-02 3.7 23:45:36 12° E 23:46:00 12° E 23:47:31 10° ENE
Cosmos 676 Rocket 4.0 23:44:45 49° S 23:46:13 77° ESE 23:51:34 10° NNE
Cosmos 1954 Rocket 4.0 23:45:26 45° SSW 23:47:06 87° WNW 23:52:27 10° NNE
Cosmos 2369 4.0 23:43:42 10° NW 23:49:17 55° WSW 23:50:47 43° SSW
ALOS 2 3.0 23:49:40 44° WSW 23:50:14 47° W 23:54:30 10° NNW
Cosmos 1190 Rocket 4.4 23:51:06 34° SW 23:53:17 60° WNW 23:58:33 10° NNE
